Regional Weather Roundup
Issued by NWS Tiyan, Guam

Home | Current Version | Previous Version | Text Only | Print | Product List | Glossary On
Versions: 1 2 3 4 5 6 7 8 9 10 11 12 13 14 15 16 17 18 19 20 21 22 23 24 25 26 27
000
ASGM40 PGUM 280512
RWRGUM
WEATHER ROUNDUP FOR THE MARIANAS
NATIONAL WEATHER SERVICE TIYAN GU
300 PM CHST FRI APR 28 2017

GUZ001>004-280600-
MARIANA ISLANDS-

CITY           SKY/WX    TMP DP  RH WIND       PRES   REMARKS
GUAM AIRPORT   CLOUDY    82  77  83 SE10      29.87F HX  91
ANDERSEN AFB   PTSUNNY   84  75  74 SE14      29.88F HX  92
ROTA AIRPORT   PTSUNNY   82  75  78 SE10      29.88S
TINIAN AP      PTSUNNY   84  75  74 SE12      29.85F HX  92
SAIPAN AP      PTSUNNY   82  73  74 SE12      29.87F

$$





USA.gov is the U.S. government's official web portal to all federal, state and local government web resources and services.